Cook, MN

8:46 PM CST on February 11, 2016 (GMT -0600)
Cook Municipal

Weather History for KCQM - June, 2014

Change the Weather History Date:

Tuesday, June 17, 2014

  Actual Average (KCDD) Record (KCDD)
Temperature  
Mean Temperature 64 °F -  
Max Temperature 78 °F 70 °F - (-1)
Min Temperature 50 °F 48 °F - (-1)
Degree Days  
Heating Degree Days 1    
Growing Degree Days 14 (Base 50)    
Moisture  
Dew Point 54 °F    
Average Humidity 69    
Maximum Humidity 100    
Minimum Humidity 41    
Precipitation  
Precipitation 0.00 in - - ()
Sea Level Pressure  
Sea Level Pressure 29.86 in    
Wind  
Wind Speed 1 mph (North)    
Max Wind Speed 9 mph    
Max Gust Speed 16 mph    
Visibility 10 miles    
Events      
Averages and records for this station are not official NWS values.
T = Trace of Precipitation, MM = Missing Value Source: NWS Daily Summary

Daily Weather History Graph

Daily Weather History Graph

Search for Another Location

Airport or City:

Trip Planner

Search our weather history database for the weather conditions in past years. The results will help you decide how hot, cold, wet, or windy it might be!

Date:

Astronomy

Jun. 17, 2014 Rise Set
Actual Time 5:11 AM CDT 9:12 PM CDT
Civil Twilight 4:30 AM CDT 9:53 PM CDT
Nautical Twilight 3:33 AM CDT 10:50 PM CDT
Astronomical Twilight 1:59 AM CDT 12:24 AM CDT
Moon No Moon Rise 10:47 AM CDT (6/17)
Length of Visible Light 17h 22m
Length of Day
16h 00m
Waning Gibbous, 73% of the Moon is Illuminated
Jun 17
Waning Gibbous
Jun 19
Last Quarter
Jun 27
New
Jul 5
First Quarter
Jul 12
Full

Hourly Weather History & Observations

Time (CDT) Temp. Dew Point Humidity Pressure Visibility Wind Dir Wind Speed Gust Speed Precip Events Conditions
12:15 AM 57.2 °F 55.4 °F 94% 29.79 in 10.0 mi Calm Calm - N/A   Clear
12:34 AM 55.4 °F 55.4 °F 100% 29.78 in 10.0 mi Calm Calm - N/A   Clear
12:55 AM 55.4 °F 55.4 °F 100% 29.77 in 10.0 mi Calm Calm - N/A   Clear
1:14 AM 55.4 °F 53.6 °F 94% 29.77 in 10.0 mi Calm Calm - N/A   Clear
1:35 AM 53.6 °F 53.6 °F 100% 29.78 in 10.0 mi Calm Calm - N/A   Clear
1:54 AM 53.6 °F 53.6 °F 100% 29.78 in 10.0 mi Calm Calm - N/A   Mostly Cloudy
2:15 AM 53.6 °F 53.6 °F 100% 29.78 in 10.0 mi Calm Calm - N/A   Mostly Cloudy
2:35 AM 53.6 °F 53.6 °F 100% 29.78 in 10.0 mi Calm Calm - N/A   Scattered Clouds
2:54 AM 53.6 °F 51.8 °F 94% 29.79 in 10.0 mi Calm Calm - N/A   Scattered Clouds
3:15 AM 53.6 °F 51.8 °F 94% 29.80 in 10.0 mi Calm Calm - N/A   Clear
3:35 AM 53.6 °F 51.8 °F 94% 29.79 in 10.0 mi Calm Calm - N/A   Clear
3:54 AM 53.6 °F 51.8 °F 94% 29.80 in 7.0 mi Calm Calm - N/A   Clear
4:15 AM 51.8 °F 51.8 °F 100% 29.81 in 7.0 mi Calm Calm - N/A   Clear
4:35 AM 51.8 °F 51.8 °F 100% 29.80 in 4.0 mi Calm Calm - N/A   Clear
4:55 AM 51.8 °F 50.0 °F 94% 29.80 in 10.0 mi Calm Calm - N/A   Clear
5:15 AM 50.0 °F 48.2 °F 94% 29.79 in 10.0 mi Calm Calm - N/A   Clear
5:34 AM 50.0 °F 48.2 °F 94% 29.80 in 10.0 mi Calm Calm - N/A   Clear
5:55 AM 50.0 °F 50.0 °F 100% 29.82 in 10.0 mi Calm Calm - N/A   Clear
6:14 AM 50.0 °F 50.0 °F 100% 29.81 in 10.0 mi Calm Calm - N/A   Clear
6:35 AM 51.8 °F 51.8 °F 100% 29.81 in 10.0 mi Calm Calm - N/A   Clear
6:55 AM 53.6 °F 53.6 °F 100% 29.81 in 10.0 mi Calm Calm - N/A   Clear
7:15 AM 57.2 °F 55.4 °F 94% 29.82 in 10.0 mi Calm Calm - N/A   Clear
7:55 AM 62.6 °F 55.4 °F 77% 29.83 in 10.0 mi Calm Calm - N/A   Clear
8:14 AM 62.6 °F 55.4 °F 77% 29.83 in 10.0 mi North 3.5 mph - N/A   Clear
8:35 AM 64.4 °F 55.4 °F 73% 29.84 in 10.0 mi Calm Calm - N/A   Clear
8:55 AM 64.4 °F 55.4 °F 73% 29.84 in 10.0 mi Calm Calm - N/A   Clear
9:15 AM 66.2 °F 57.2 °F 73% 29.84 in 10.0 mi NNE 4.6 mph - N/A   Clear
9:34 AM 68.0 °F 57.2 °F 68% 29.85 in 10.0 mi Calm Calm - N/A   Clear
9:55 AM 69.8 °F 55.4 °F 60% 29.85 in 10.0 mi NNE 3.5 mph - N/A   Clear
10:15 AM 69.8 °F 55.4 °F 60% 29.85 in 10.0 mi NNW 3.5 mph - N/A   Clear
10:34 AM 71.6 °F 55.4 °F 57% 29.85 in 10.0 mi NNW 8.1 mph - N/A   Clear
10:52 AM 71.6 °F 55.4 °F 57% 29.85 in 10.0 mi NW 3.5 mph - N/A   Clear
11:14 AM 73.4 °F 57.2 °F 57% 29.86 in 10.0 mi Calm Calm - N/A   Clear
11:34 AM 73.4 °F 57.2 °F 57% 29.86 in 10.0 mi WNW 6.9 mph - N/A   Clear
11:55 AM 73.4 °F 55.4 °F 53% 29.86 in 10.0 mi NNW 5.8 mph - N/A   Clear
12:15 PM 75.2 °F 55.4 °F 50% 29.86 in 10.0 mi NW 3.5 mph - N/A   Clear
12:35 PM 75.2 °F 55.4 °F 50% 29.87 in 10.0 mi North 3.5 mph - N/A   Clear
12:55 PM 75.2 °F 53.6 °F 47% 29.87 in 10.0 mi Calm Calm - N/A   Clear
1:14 PM 75.2 °F 53.6 °F 47% 29.87 in 10.0 mi Calm Calm - N/A   Clear
1:34 PM 75.2 °F 55.4 °F 50% 29.88 in 10.0 mi NW 4.6 mph - N/A   Clear
1:55 PM 75.2 °F 55.4 °F 50% 29.88 in 10.0 mi Calm Calm - N/A   Clear
2:14 PM 75.2 °F 55.4 °F 50% 29.88 in 10.0 mi NW 4.6 mph - N/A   Clear
2:34 PM 77.0 °F 53.6 °F 44% 29.88 in 10.0 mi West 3.5 mph - N/A   Clear
2:55 PM 77.0 °F 57.2 °F 50% 29.88 in 10.0 mi WNW 5.8 mph - N/A   Clear
3:15 PM 77.0 °F 55.4 °F 47% 29.88 in 10.0 mi North 6.9 mph - N/A   Clear
3:34 PM 78.8 °F 57.2 °F 47% 29.88 in 10.0 mi WNW 4.6 mph - N/A   Scattered Clouds
3:55 PM 77.0 °F 55.4 °F 47% 29.88 in 10.0 mi NE 6.9 mph - N/A   Scattered Clouds
4:00 PM 75.2 °F 55.4 °F 50% 29.88 in 10.0 mi NNE 4.6 mph - N/A   Clear
4:35 PM 77.0 °F 53.6 °F 44% 29.89 in 10.0 mi North 9.2 mph 16.1 mph N/A   Clear
4:54 PM 77.0 °F 53.6 °F 44% 29.89 in 10.0 mi North 5.8 mph - N/A   Clear
5:15 PM 77.0 °F 53.6 °F 44% 29.89 in 10.0 mi North 3.5 mph - N/A   Clear
5:34 PM 77.0 °F 51.8 °F 41% 29.90 in 10.0 mi North 5.8 mph - N/A   Clear
5:54 PM 75.2 °F 53.6 °F 47% 29.90 in 10.0 mi North 5.8 mph - N/A   Clear
6:15 PM 75.2 °F 53.6 °F 47% 29.90 in 10.0 mi NNE 4.6 mph - N/A   Clear
6:35 PM 75.2 °F 51.8 °F 44% 29.91 in 10.0 mi North 5.8 mph - N/A   Clear
6:55 PM 75.2 °F 53.6 °F 47% 29.91 in 10.0 mi NE 4.6 mph - N/A   Clear
7:14 PM 73.4 °F 51.8 °F 47% 29.92 in 10.0 mi NE 4.6 mph - N/A   Clear
7:34 PM 73.4 °F 51.8 °F 47% 29.92 in 10.0 mi Calm Calm - N/A   Clear
7:55 PM 73.4 °F 51.8 °F 47% 29.93 in 10.0 mi Calm Calm - N/A   Clear
8:14 PM 71.6 °F 53.6 °F 53% 29.93 in 10.0 mi Calm Calm - N/A   Clear
8:35 PM 69.8 °F 53.6 °F 56% 29.94 in 10.0 mi Calm Calm - N/A   Clear
8:55 PM 68.0 °F 53.6 °F 60% 29.94 in 10.0 mi Calm Calm - N/A   Clear
9:14 PM 68.0 °F 53.6 °F 60% 29.95 in 10.0 mi Calm Calm - N/A   Clear
9:55 PM 64.4 °F 53.6 °F 68% 29.97 in 10.0 mi Calm Calm - N/A   Clear
10:14 PM 64.4 °F 53.6 °F 68% 29.98 in 10.0 mi Calm Calm - N/A   Clear
10:35 PM 62.6 °F 53.6 °F 72% 29.99 in 10.0 mi NNE 3.5 mph - N/A   Clear
10:55 PM 62.6 °F 53.6 °F 72% 29.99 in 10.0 mi NNE 4.6 mph - N/A   Clear
11:14 PM 62.6 °F 53.6 °F 72% 29.99 in 10.0 mi Calm Calm - N/A   Clear
11:35 PM 60.8 °F 53.6 °F 77% 29.99 in 10.0 mi Calm Calm - N/A   Clear
11:55 PM 60.8 °F 53.6 °F 77% 29.99 in 10.0 mi Calm Calm - N/A   Clear